When you browse on this site, cookies collect data to enhance your experience and personalize the content and advertising you see.
Visit our Privacy Policy to learn more. By continuing to use the site, you agree to this use of cookies and data.
  • In Romania
  • List of Countries
  • For 7 days
  • Water Temperature
  • Satellite Maps
  • Weather Map
  • Weather Widgets
  • user-avatar
    Login

    Hourly Weather Pogari

    Today, 24 March, Sunday

    Time Temperature Precipitation Wind Pressure Humidity
    00:00 +1°C° 0.7 mm 3 mps 745 mmHg 77%
    01:00 +1°C° 0.7 mm 3 mps 744 mmHg 77%
    02:00 +1°C° 0 mm 3 mps 743 mmHg 78%
    03:00 +1°C° 0.4 mm 3 mps 742 mmHg 80%
    04:00 +1°C° 0.4 mm 3 mps 742 mmHg 81%
    05:00 +1°C° 0.4 mm 3 mps 741 mmHg 83%
    06:00 +2°C° 0 mm 3 mps 741 mmHg 84%
    07:00 +1°C° 0 mm 4 mps 741 mmHg 85%
    08:00 +1°C° 0 mm 4 mps 741 mmHg 86%
    09:00 +3°C° 0 mm 4 mps 741 mmHg 79%
    10:00 +3°C° 0 mm 5 mps 741 mmHg 72%
    11:00 +5°C° 0 mm 5 mps 741 mmHg 65%
    12:00 +5°C° 0.1 mm 5 mps 741 mmHg 61%
    13:00 +6°C° 0.1 mm 5 mps 741 mmHg 57%
    14:00 +6°C° 0.1 mm 5 mps 741 mmHg 53%
    15:00 +5°C° 0 mm 5 mps 741 mmHg 56%
    16:00 +5°C° 0 mm 4 mps 741 mmHg 58%
    17:00 +4°C° 0 mm 3 mps 741 mmHg 60%
    18:00 +3°C° 0 mm 3 mps 741 mmHg 63%
    19:00 +2°C° 0 mm 3 mps 741 mmHg 65%
    20:00 +1°C° 0 mm 3 mps 741 mmHg 68%
    21:00 +1°C° 0 mm 2 mps 741 mmHg 71%
    22:00 -1°C° 0 mm 2 mps 741 mmHg 73%
    23:00 -1°C° 0 mm 2 mps 741 mmHg 76%

    Tomorrow, 25 March, Monday

    Time Temperature Precipitation Wind Pressure Humidity
    00:00 -2°C° 0 mm 2 mps 741 mmHg 77%
    01:00 -2°C° 0 mm 2 mps 741 mmHg 78%
    02:00 -2°C° 0 mm 2 mps 741 mmHg 79%
    03:00 -3°C° 0 mm 2 mps 741 mmHg 78%
    04:00 -3°C° 0 mm 2 mps 741 mmHg 78%
    05:00 -3°C° 0 mm 2 mps 740 mmHg 77%
    06:00 -2°C° 0 mm 2 mps 740 mmHg 72%
    07:00 -1°C° 0 mm 3 mps 740 mmHg 68%
    08:00 0°C° 0 mm 3 mps 740 mmHg 63%
    09:00 +2°C° 0 mm 3 mps 740 mmHg 58%
    10:00 +3°C° 0 mm 4 mps 739 mmHg 52%
    11:00 +5°C° 0 mm 4 mps 739 mmHg 47%
    12:00 +5°C° 0 mm 4 mps 739 mmHg 46%
    13:00 +6°C° 0 mm 4 mps 739 mmHg 45%
    14:00 +7°C° 0 mm 3 mps 738 mmHg 44%
    15:00 +5°C° 0 mm 3 mps 738 mmHg 49%
    16:00 +6°C° 0 mm 2 mps 738 mmHg 54%
    17:00 +5°C° 0 mm 2 mps 738 mmHg 59%
    18:00 +4°C° 0 mm 2 mps 738 mmHg 64%
    19:00 +2°C° 0 mm 2 mps 738 mmHg 69%
    20:00 +1°C° 0 mm 2 mps 738 mmHg 74%
    21:00 +1°C° 0 mm 2 mps 737 mmHg 75%
    22:00 +1°C° 0 mm 2 mps 737 mmHg 76%
    23:00 -1°C° 0 mm 2 mps 737 mmHg 78%

    Day after tomorrow, 26 March, Tuesday

    Time Temperature Precipitation Wind Pressure Humidity
    00:00 -1°C° 0 mm 2 mps 737 mmHg 80%
    01:00 -1°C° 0 mm 2 mps 737 mmHg 81%
    02:00 -1°C° 0 mm 2 mps 737 mmHg 83%
    03:00 -1°C° 0.1 mm 2 mps 736 mmHg 86%
    04:00 -1°C° 0.1 mm 2 mps 736 mmHg 89%
    05:00 -2°C° 0.1 mm 2 mps 736 mmHg 91%
    06:00 -1°C° 0.6 mm 3 mps 736 mmHg 89%
    07:00 -1°C° 0.6 mm 3 mps 736 mmHg 87%
    08:00 -1°C° 0.6 mm 4 mps 736 mmHg 86%
    09:00 -1°C° 0.1 mm 4 mps 736 mmHg 79%
    10:00 -1°C° 0.1 mm 4 mps 736 mmHg 73%
    11:00 -1°C° 0.1 mm 4 mps 737 mmHg 67%
    12:00 -1°C° 0.2 mm 4 mps 737 mmHg 64%
    13:00 0°C° 0.2 mm 4 mps 737 mmHg 60%
    14:00 0°C° 0.2 mm 4 mps 737 mmHg 57%
    15:00 +1°C° 0 mm 3 mps 737 mmHg 57%
    16:00 +1°C° 0 mm 2 mps 737 mmHg 58%
    17:00 +2°C° 0 mm 1 mps 737 mmHg 58%
    18:00 +1°C° 0 mm 1 mps 737 mmHg 62%
    19:00 -1°C° 0 mm 1 mps 738 mmHg 66%
    20:00 -2°C° 0 mm 1 mps 738 mmHg 71%
    21:00 -2°C° 0 mm 1 mps 738 mmHg 71%
    22:00 -2°C° 0 mm 1 mps 739 mmHg 72%
    23:00 -3°C° 0 mm 1 mps 739 mmHg 72%

    27 March, Wednesday

    Time Temperature Precipitation Wind Pressure Humidity
    00:00 -3°C° 0 mm 1 mps 740 mmHg 75%
    01:00 -4°C° 0 mm 2 mps 740 mmHg 77%
    02:00 -5°C° 0 mm 3 mps 741 mmHg 80%
    03:00 -5°C° 0 mm 3 mps 741 mmHg 80%
    04:00 -6°C° 0 mm 3 mps 742 mmHg 81%
    05:00 -7°C° 0 mm 4 mps 742 mmHg 82%
    06:00 -5°C° 0 mm 4 mps 743 mmHg 78%
    07:00 -5°C° 0 mm 5 mps 743 mmHg 75%
    08:00 -5°C° 0 mm 5 mps 744 mmHg 71%
    09:00 -4°C° 0.1 mm 5 mps 744 mmHg 67%
    10:00 -2°C° 0.1 mm 5 mps 745 mmHg 63%
    11:00 -2°C° 0.1 mm 5 mps 745 mmHg 59%
    12:00 -1°C° 0 mm 5 mps 746 mmHg 58%
    13:00 -1°C° 0 mm 5 mps 746 mmHg 58%
    14:00 -1°C° 0 mm 5 mps 747 mmHg 57%
    15:00 -1°C° 0 mm 5 mps 747 mmHg 58%
    16:00 -1°C° 0 mm 5 mps 748 mmHg 58%
    17:00 -1°C° 0 mm 4 mps 748 mmHg 58%
    18:00 -1°C° 0 mm 3 mps 749 mmHg 63%
    19:00 -2°C° 0 mm 3 mps 750 mmHg 68%
    20:00 -3°C° 0 mm 2 mps 750 mmHg 74%
    21:00 -3°C° 0 mm 2 mps 750 mmHg 76%
    22:00 -4°C° 0 mm 2 mps 751 mmHg 78%
    23:00 -4°C° 0 mm 2 mps 751 mmHg 80%

    28 March, Thursday

    Time Temperature Precipitation Wind Pressure Humidity
    00:00 -4°C° 0 mm 2 mps 751 mmHg 80%
    01:00 -4°C° 0 mm 2 mps 751 mmHg 80%
    02:00 -5°C° 0 mm 2 mps 752 mmHg 80%
    03:00 -4°C° 0 mm 2 mps 752 mmHg 79%
    04:00 -4°C° 0 mm 2 mps 752 mmHg 78%
    05:00 -4°C° 0 mm 2 mps 752 mmHg 76%
    06:00 -4°C° 0 mm 3 mps 752 mmHg 70%
    07:00 -2°C° 0 mm 3 mps 752 mmHg 65%
    08:00 -1°C° 0 mm 3 mps 752 mmHg 59%
    09:00 -1°C° 0 mm 4 mps 752 mmHg 55%
    10:00 +1°C° 0 mm 4 mps 752 mmHg 50%
    11:00 +3°C° 0 mm 4 mps 751 mmHg 46%
    12:00 +4°C° 0 mm 4 mps 751 mmHg 46%
    13:00 +5°C° 0 mm 4 mps 751 mmHg 47%
    14:00 +5°C° 0 mm 5 mps 750 mmHg 47%
    15:00 +5°C° 0 mm 4 mps 750 mmHg 54%
    16:00 +4°C° 0 mm 3 mps 750 mmHg 61%
    17:00 +4°C° 0 mm 3 mps 749 mmHg 68%
    18:00 +3°C° 0 mm 3 mps 749 mmHg 74%
    19:00 +2°C° 0 mm 3 mps 749 mmHg 80%
    20:00 0°C° 0 mm 4 mps 748 mmHg 87%
    21:00 0°C° 0 mm 4 mps 748 mmHg 87%
    22:00 0°C° 0 mm 4 mps 748 mmHg 88%
    23:00 0°C° 0 mm 5 mps 747 mmHg 88%

    29 March, Friday

    Time Temperature Precipitation Wind Pressure Humidity
    00:00 0°C° 0 mm 5 mps 746 mmHg 88%
    01:00 +1°C° 0 mm 5 mps 746 mmHg 88%
    02:00 +1°C° 0 mm 5 mps 745 mmHg 88%
    03:00 +1°C° 0.1 mm 6 mps 745 mmHg 86%
    04:00 +1°C° 0.1 mm 6 mps 745 mmHg 85%
    05:00 +1°C° 0.1 mm 6 mps 745 mmHg 84%
    06:00 +1°C° 0.1 mm 6 mps 745 mmHg 79%
    07:00 -1°C° 0.1 mm 6 mps 746 mmHg 73%
    08:00 -1°C° 0.1 mm 6 mps 746 mmHg 67%
    09:00 +1°C° 0 mm 6 mps 747 mmHg 65%
    10:00 +1°C° 0 mm 6 mps 747 mmHg 63%
    11:00 +2°C° 0 mm 6 mps 748 mmHg 61%
    12:00 +3°C° 0 mm 5 mps 748 mmHg 60%
    13:00 +3°C° 0 mm 5 mps 748 mmHg 60%
    14:00 +5°C° 0 mm 5 mps 749 mmHg 59%
    15:00 +5°C° 0 mm 4 mps 749 mmHg 61%
    16:00 +5°C° 0 mm 4 mps 749 mmHg 62%
    17:00 +4°C° 0 mm 3 mps 750 mmHg 64%
    18:00 +3°C° 0 mm 3 mps 750 mmHg 70%
    19:00 +3°C° 0 mm 2 mps 750 mmHg 77%
    20:00 +1°C° 0 mm 2 mps 750 mmHg 83%
    21:00 +1°C° 0 mm 2 mps 751 mmHg 84%
    22:00 +1°C° 0 mm 1 mps 751 mmHg 86%
    23:00 +1°C° 0 mm 1 mps 751 mmHg 88%
    Show more